Regional Weather Roundup
Issued by NWS

Home | Current Version | Previous Version | Text Only | Print | Product List | Glossary On
Versions: 1 2 3 4 5 6 7 8 9 10 11 12 13 14 15 16 17 18 19 20 21 22 23 24 25 26 27 28 29 30 31 32 33 34 35 36 37 38 39 40 41 42 43 44 45 46 47 48 49 50
000
ASUS45 KABQ 290510
RWRNM
WEATHER ROUNDUP FOR NEW MEXICO
NATIONAL WEATHER SERVICE ALBUQUERQUE NM
1100 PM MDT MON JUL 28 2014

NOTE: "FAIR" MEANS FEW OR NO CLOUDS BELOW 12,000 FEET AGL WITH NO
       SIGNIFICANT WEATHER OR OBSTRUCTIONS TO VISION.

      THIS PRODUCT IS RELEASED AS TWO VERSIONS.  ONE VERSION NEAR
      THE TOP OF THE HOUR CONTAINING PRELIMINARY DATA FROM ALBUQUERQUE
      AND OTHER STATIONS.  A FINAL VERSION WITH ADDITIONAL DATA IS
      ISSUED ABOUT 10 MINUTES AFTER THE HOUR.

NMZ501-503-504-510>518-290600-
NORTHWEST PLATEAU/NORTHCENTRAL MOUNTAINS

CITY           SKY/WX    TMP DP  RH WIND       PRES   REMARKS
FARMINGTON     CLOUDY    65  57  75 E8        30.34F
LOS ALAMOS     CLOUDY    64  53  67 SE3       30.48S
SANTA FE       CLOUDY    65  57  75 SE9       30.42S
TAOS           MOCLDY    61  54  77 E3        30.47R
ANGEL FIRE     CLOUDY    57  54  91 SE3       30.56R

$$
NMZ402-403-502-505>509-290600-
WESTCENTRAL MOUNTAINS/SOUTHWEST MOUNTAINS

CITY           SKY/WX    TMP DP  RH WIND       PRES   REMARKS
GALLUP         CLOUDY    63  59  87 CALM      30.40R
SILVER CITY    CLOUDY    72  55  56 N6        30.32S

$$
NMZ407-409-411-412-290600-
SOUTHERN DESERTS

CITY           SKY/WX    TMP DP  RH WIND       PRES   REMARKS
LORDSBURG      FAIR      75  59  57 CALM      30.21R
DEMING         PTCLDY    76  61  59 NE10      30.22R
LAS CRUCES     CLOUDY    71  65  83 NE7       30.25F
HOLLOMAN AFB   MOCLDY    77  63  61 NW15      30.21R
ALAMOGORDO     CLOUDY    77  63  61 NW16      30.23R
T OR C         CLOUDY    74  59  59 SE9       30.27F

$$
NMZ519>523-290600-
CENTRAL VALLEYS/CENTRAL HIGHLANDS

CITY           SKY/WX    TMP DP  RH WIND       PRES   REMARKS
ALBUQUERQUE    CLOUDY    73  58  59 E8        30.33R
DOUBLE EAGLE   CLOUDY    69  62  78 CALM      30.36F
MORIARTY ARPT  CLOUDY    62  58  87 NE9       30.43S
CLINES CORNERS RAIN      59  55  87 NE8       30.47R FOG
BELEN          CLOUDY    74  56  53 N8        30.31S
SOCORRO        CLOUDY    75  58  55 SE7       30.27S

$$
NMZ524>526-539-540-290600-
SOUTHCENTRAL MOUNTAINS

CITY           SKY/WX    TMP DP  RH WIND       PRES   REMARKS
RUIDOSO        CLOUDY    63  57  82 SE6       30.45S

$$
NMZ527>531-290600-
NORTHEAST HIGHLANDS/NORTHEAST PLAINS

CITY           SKY/WX    TMP DP  RH WIND       PRES   REMARKS
LAS VEGAS      CLOUDY    62  58  86 S12       30.46S
RATON          MOCLDY    59  57  93 SW7       30.42R
CLAYTON        MOCLDY    65  62  90 S10       30.33S

$$
NMZ532>537-290600-
EASTCENTRAL PLAINS

CITY           SKY/WX    TMP DP  RH WIND       PRES   REMARKS
TUCUMCARI      MOCLDY    71  58  63 S3        30.26F
CANNON AFB     CLOUDY    70  70 100 E8        30.29F
CLOVIS AIRPORT NOT AVBL

$$
NMZ028-029-538-290600-
SOUTHEAST PLAINS

CITY           SKY/WX    TMP DP  RH WIND       PRES   REMARKS
ROSWELL        TSTM      74  66  76 NW20G25   30.22R
ARTESIA        PTCLDY    82  61  47 SE15      30.19S
CARLSBAD       CLEAR     84  61  45 E16G23    30.16R
HOBBS          CLEAR     77  63  61 E15G22    30.24R


$$


USA.gov is the U.S. government's official web portal to all federal, state and local government web resources and services.